Observations for Trim Market St
| Time | AQI | Temp °C | Hum % | Pres Pa | CO μg/m³ | H₂S μg/m³ | NO μg/m³ | NO₂ μg/m³ | O₃ μg/m³ | SO₂ μg/m³ | PM1 μg/m³ | PM2.5 μg/m³ | PM10 μg/m³ |
|---|---|---|---|---|---|---|---|---|---|---|---|---|---|
| Saturday 22 August 2026 | |||||||||||||
| 02:02 | 2 | 12.1 | 73 | 55,974 | 0.49 | 0 | 4.48 | 7.89 | 44.37 | 0 | 1.43 | 2.93 | 5.7 |
| 02:01 | 2 | 12.1 | 73 | 55,905 | 0.51 | 0 | 4.07 | 9.15 | 44.16 | 0 | 1.43 | 3.41 | 5.7 |
| 01:59 | 2 | 12 | 73 | 55,763 | 0.52 | 0 | 4 | 11.84 | 40.19 | 0 | 0.71 | 2.44 | 4.48 |
| 01:58 | 2 | 12 | 73 | 55,693 | 0.49 | 0 | 3.82 | 9.73 | 42.94 | 0 | 1.43 | 2.92 | 5.09 |
| 01:56 | 2 | 11.9 | 73 | 55,540 | 0.49 | 0 | 3.15 | 8.23 | 44.1 | 0 | 2.14 | 3.39 | 6.31 |
| 01:55 | 2 | 11.8 | 73 | 55,454 | 0.5 | 0 | 3.06 | 8.74 | 43.65 | 0 | 1.43 | 2.91 | 5.1 |
| 01:54 | 2 | 11.8 | 73 | 55,357 | 0.48 | 0 | 3 | 9.58 | 42.8 | 0 | 1.43 | 2.9 | 5.1 |
| 01:51 | 2 | 11.7 | 73 | 55,143 | 0.49 | 0 | 3.19 | 9.07 | 43.03 | 0 | 1.43 | 2.89 | 5.1 |
| 01:48 | 2 | 11.6 | 74 | 54,940 | 0.48 | 0 | 3.83 | 9.2 | 42.16 | 0 | 0.71 | 1.45 | 3.29 |
| 01:46 | 2 | 11.6 | 74 | 54,832 | 0.47 | 0 | 3.72 | 10.61 | 40.89 | 0 | 1.43 | 2.4 | 4.5 |
| 01:43 | 2 | 11.5 | 74 | 54,685 | 0.47 | 0 | 3.56 | 10.2 | 40.43 | 0 | 2.14 | 3.84 | 6.32 |
| 01:35 | 2 | 11.3 | 74 | 54,260 | 0.45 | 0 | 4.03 | 9.62 | 40.55 | 0 | 1.43 | 2.87 | 5.12 |
| 01:34 | 2 | 11.3 | 74 | 54,167 | 0.44 | 0 | 4.03 | 9.27 | 40.23 | 0 | 2.14 | 3.83 | 8.13 |
| 01:33 | 2 | 11.3 | 74 | 54,081 | 0.44 | 0 | 4.06 | 9.29 | 44.57 | 0 | 2.14 | 3.34 | 5.72 |
| 01:32 | 2 | 11.3 | 74 | 53,993 | 0.44 | 0 | 3.45 | 9.64 | 39.89 | 0 | 2.14 | 2.86 | 5.12 |
| 01:31 | 2 | 11.2 | 74 | 53,920 | 0.45 | 0 | 3.44 | 8.71 | 40.91 | 0 | 1.43 | 3.34 | 6.33 |
| 01:30 | 2 | 11.2 | 74 | 53,839 | 0.45 | 0 | 3.42 | 9.06 | 40.71 | 0 | 1.43 | 2.86 | 5.12 |
| 01:29 | 2 | 11.2 | 74 | 53,776 | 0.44 | 0 | 3.7 | 10.54 | 37.97 | 0 | 1.43 | 3.34 | 5.73 |
| 01:28 | 2 | 11.2 | 74 | 53,715 | 0.43 | 0 | 4.18 | 9.24 | 38.84 | 0 | 1.43 | 3.34 | 6.33 |
| 01:27 | 2 | 11.2 | 74 | 53,650 | 0.45 | 0 | 5.65 | 9.27 | 39.82 | 0 | 1.43 | 2.85 | 5.13 |